Weather History for Woensdrecht, Netherlands

Change the Weather History Date:

Saturday, November 3, 2012

  Actual Average Record
Temperature  
Mean Temperature 46 °F -  
Max Temperature 50 °F 47 °F 64 °F (2005)
Min Temperature 42 °F 38 °F 32 °F (2006)
Degree Days  
Heating Degree Days 19    
Moisture  
Dew Point 42 °F    
Average Humidity 87    
Maximum Humidity 100    
Minimum Humidity 66    
Precipitation  
Precipitation 0.00 in - - ()
Sea Level Pressure  
Sea Level Pressure 29.46 in    
Wind  
Wind Speed 9 mph ()    
Max Wind Speed 16 mph    
Max Gust Speed 28 mph    
Visibility 6.2 miles    
Events Rain    
Averages and records for this station are not official NWS values.
T = Trace of Precipitation, MM = Missing Value Source: Averaged Metar Reports

Daily Weather History Graph

Daily Weather History Graph

Search for Another Location

Airport:

Trip Planner

Search our weather history database for the weather conditions in past years. The results will help you decide how hot, cold, wet, or windy it might be!

Date:

Astronomy

Nov. 03, 2012 Rise Set
Actual Time 7:40 AM CET 5:11 PM CET
Civil Twilight 7:04 AM CET 5:46 PM CET
Nautical Twilight 6:24 AM CET 6:26 PM CET
Astronomical Twilight 5:46 AM CET 7:05 PM CET
Moon 8:25 PM CET (11/3) 11:46 AM CET (11/3)
Length of Visible Light 10h 42m
Length of Day
9h 31m
Waning Gibbous, 82% of the Moon is Illuminated
Nov 3
Waning Gibbous
Nov 7
Last Quarter
Nov 13
New
Nov 20
First Quarter
Nov 28
Full

Hourly Weather History & Observations

Time (CET) Temp. Windchill Dew Point Humidity Pressure Visibility Wind Dir Wind Speed Gust Speed Precip Events Conditions
12:25 AM 44.6 °F 38.8 °F 39.2 °F 81% 29.47 in 6.2 mi SW 11.5 mph - N/A   Overcast
12:55 AM 44.6 °F 39.7 °F 39.2 °F 81% 29.47 in 6.2 mi SW 9.2 mph - N/A   Overcast
1:25 AM 44.6 °F 40.7 °F 39.2 °F 81% 29.47 in 6.2 mi SSW 6.9 mph - N/A   Overcast
1:55 AM 44.6 °F 38.4 °F 39.2 °F 81% 29.47 in 6.2 mi SW 12.7 mph - N/A   Overcast
2:25 AM 44.6 °F 38.4 °F 39.2 °F 81% 29.47 in 6.2 mi SW 12.7 mph - N/A   Overcast
2:55 AM 44.6 °F 38.8 °F 39.2 °F 81% 29.47 in 6.2 mi SW 11.5 mph - N/A   Overcast
3:25 AM 42.8 °F 38.0 °F 39.2 °F 87% 29.47 in 6.2 mi SSW 8.1 mph - N/A   Overcast
3:55 AM 42.8 °F 37.0 °F 39.2 °F 87% 29.47 in 6.2 mi SW 10.4 mph - N/A   Unknown
4:25 AM 42.8 °F 38.0 °F 39.2 °F 87% 29.47 in 6.2 mi SSW 8.1 mph - N/A   Mostly Cloudy
4:55 AM 42.8 °F 38.0 °F 39.2 °F 87% 29.47 in 6.2 mi South 8.1 mph - N/A   Overcast
5:25 AM 42.8 °F 38.0 °F 39.2 °F 87% 29.47 in 6.2 mi South 8.1 mph - N/A   Overcast
5:55 AM 42.8 °F 38.0 °F 39.2 °F 87% 29.44 in 6.2 mi South 8.1 mph - N/A   Overcast
6:25 AM 42.8 °F 37.5 °F 39.2 °F 87% 29.47 in 6.2 mi South 9.2 mph - N/A   Mostly Cloudy
6:55 AM 42.8 °F 38.6 °F 41.0 °F 93% 29.44 in 6.2 mi South 6.9 mph - N/A   Mostly Cloudy
7:25 AM 44.6 °F 40.7 °F 41.0 °F 87% 29.44 in 6.2 mi South 6.9 mph - N/A   Mostly Cloudy
7:55 AM 42.8 °F 38.6 °F 41.0 °F 93% 29.44 in 6.2 mi South 6.9 mph - N/A   Mostly Cloudy
8:15 AM 44.6 °F 39.7 °F 41.0 °F 87% 29.44 in 6.2 mi South 9.2 mph - N/A   Mostly Cloudy
8:16 AM 44.6 °F 40.2 °F 42.8 °F 93% 29.44 in 6.2 mi South 8.1 mph - N/A   Mostly Cloudy
8:25 AM 44.6 °F 40.2 °F 42.8 °F 93% 29.44 in 6.2 mi South 8.1 mph - N/A   Overcast
8:55 AM 44.6 °F 40.2 °F 42.8 °F 93% 29.44 in 6.2 mi South 8.1 mph - N/A   Overcast
9:25 AM 44.6 °F 40.7 °F 42.8 °F 93% 29.44 in 6.2 mi South 6.9 mph - N/A Rain Light Rain
9:30 AM 44.6 °F 40.7 °F 42.8 °F 93% 29.44 in 6.2 mi South 6.9 mph - N/A Rain Light Rain
9:34 AM 44.6 °F 40.7 °F 42.8 °F 93% 29.42 in 6.2 mi South 6.9 mph - N/A Rain Light Rain
9:38 AM 44.6 °F 41.4 °F 42.8 °F 93% 29.42 in 6.2 mi South 5.8 mph - N/A Rain Light Rain
9:39 AM 44.6 °F 40.7 °F 42.8 °F 93% 29.44 in 6.2 mi South 6.9 mph - N/A Rain Light Rain
9:46 AM 44.6 °F 40.2 °F 44.6 °F 100% 29.44 in 6.2 mi South 8.1 mph 20.7 mph N/A Rain Light Rain Showers
9:55 AM 44.6 °F 39.7 °F 44.6 °F 100% 29.44 in 6.2 mi South 9.2 mph - N/A Rain Rain
9:56 AM 44.6 °F 39.7 °F 44.6 °F 100% 29.44 in 6.2 mi South 9.2 mph - N/A Rain Rain
10:03 AM 44.6 °F 39.7 °F 44.6 °F 100% 29.44 in 6.2 mi South 9.2 mph - N/A Rain Rain
10:15 AM 44.6 °F 40.7 °F 44.6 °F 100% 29.44 in 6.2 mi South 6.9 mph - N/A Rain Rain Showers
10:25 AM 44.6 °F 40.7 °F 44.6 °F 100% 29.42 in 6.2 mi South 6.9 mph - N/A Rain Light Rain
10:30 AM 44.6 °F 40.7 °F 44.6 °F 100% 29.42 in 6.2 mi South 6.9 mph - N/A Rain Light Rain
10:37 AM 44.6 °F 40.7 °F 44.6 °F 100% 29.42 in 6.2 mi South 6.9 mph - N/A Rain Light Rain
10:41 AM 44.6 °F 40.7 °F 44.6 °F 100% 29.42 in 6.2 mi South 6.9 mph - N/A Rain Light Rain
10:49 AM 44.6 °F 41.4 °F 44.6 °F 100% 29.42 in 6.2 mi South 5.8 mph - N/A Rain Light Rain
10:55 AM 44.6 °F 41.4 °F 44.6 °F 100% 29.42 in 6.2 mi South 5.8 mph - N/A Rain Light Rain
11:10 AM 44.6 °F 40.7 °F 42.8 °F 93% 29.42 in 6.2 mi South 6.9 mph - N/A Rain Light Rain
11:20 AM 44.6 °F 40.7 °F 42.8 °F 93% 29.42 in 6.2 mi South 6.9 mph - N/A   Drizzle
11:25 AM 44.6 °F 41.4 °F 42.8 °F 93% 29.42 in 6.2 mi South 5.8 mph - N/A   Drizzle
11:55 AM 46.4 °F 43.5 °F 44.6 °F 93% 29.42 in 6.2 mi South 5.8 mph - N/A   Overcast
12:25 PM 46.4 °F 42.9 °F 42.8 °F 87% 29.42 in 6.2 mi South 6.9 mph - N/A   Overcast
12:31 PM 46.4 °F 42.9 °F 42.8 °F 87% 29.42 in 6.2 mi SSW 6.9 mph - N/A   Overcast
12:38 PM 46.4 °F 42.9 °F 44.6 °F 93% 29.42 in 6.2 mi SSW 6.9 mph - N/A   Mostly Cloudy
12:48 PM 46.4 °F 41.5 °F 42.8 °F 87% 29.42 in 4.3 mi SSW 10.4 mph - N/A   Overcast
12:55 PM 46.4 °F 40.7 °F 42.8 °F 87% 29.42 in 6.2 mi SSW 12.7 mph - N/A   Overcast
12:59 PM 46.4 °F 40.4 °F 42.8 °F 87% 29.42 in 6.2 mi SSW 13.8 mph - N/A   Overcast
1:03 PM 46.4 °F 40.4 °F 42.8 °F 87% 29.42 in 6.2 mi SW 13.8 mph - N/A   Overcast
1:11 PM 46.4 °F 40.4 °F 42.8 °F 87% 29.42 in 6.2 mi SW 13.8 mph - N/A Rain Light Rain
1:25 PM 46.4 °F 41.1 °F 42.8 °F 87% 29.42 in 6.2 mi SW 11.5 mph - N/A   Mostly Cloudy
1:55 PM 48.2 °F - 42.8 °F 82% 29.42 in 6.2 mi SW 16.1 mph 27.6 mph N/A   Mostly Cloudy
2:03 PM 46.4 °F 40.4 °F 42.8 °F 87% 29.42 in 6.2 mi SW 13.8 mph - N/A   Overcast
2:25 PM 46.4 °F 40.7 °F 42.8 °F 87% 29.42 in 6.2 mi SW 12.7 mph - N/A   Overcast
2:55 PM 48.2 °F - 41.0 °F 76% 29.42 in 6.2 mi SW 12.7 mph - N/A   Unknown
3:25 PM 50.0 °F - 41.0 °F 71% 29.44 in 6.2 mi SW 12.7 mph - N/A   Unknown
3:55 PM 50.0 °F - 41.0 °F 71% 29.44 in 6.2 mi SW 15.0 mph - N/A   Unknown
4:25 PM 48.2 °F - 41.0 °F 76% 29.47 in 6.2 mi SW 11.5 mph - N/A   Scattered Clouds
4:55 PM 48.2 °F - 41.0 °F 76% 29.47 in 6.2 mi SW 12.7 mph - N/A   Mostly Cloudy
5:25 PM 48.2 °F - 41.0 °F 76% 29.47 in 6.2 mi SW 10.4 mph - N/A   Mostly Cloudy
5:55 PM 48.2 °F - 41.0 °F 76% 29.50 in 6.2 mi SSW 9.2 mph - N/A   Mostly Cloudy
6:25 PM 46.4 °F 41.9 °F 41.0 °F 81% 29.50 in 6.2 mi SW 9.2 mph - N/A   Unknown
6:55 PM 46.4 °F 41.5 °F 41.0 °F 81% 29.53 in 6.2 mi SSW 10.4 mph - N/A   Partly Cloudy
7:25 PM 46.4 °F 42.4 °F 39.2 °F 76% 29.53 in 6.2 mi SW 8.1 mph - N/A   Overcast
7:55 PM 44.6 °F 40.7 °F 39.2 °F 81% 29.53 in 6.2 mi SW 6.9 mph - N/A   Overcast
8:25 PM 46.4 °F 43.5 °F 39.2 °F 76% 29.53 in 6.2 mi SW 5.8 mph - N/A   Overcast
8:55 PM 46.4 °F 41.9 °F 41.0 °F 81% 29.56 in 6.2 mi SSW 9.2 mph - N/A   Overcast
9:25 PM 46.4 °F 41.5 °F 41.0 °F 81% 29.56 in 6.2 mi SW 10.4 mph - N/A   Mostly Cloudy
9:55 PM 44.6 °F 38.8 °F 39.2 °F 81% 29.56 in 6.2 mi SW 11.5 mph - N/A   Mostly Cloudy
10:25 PM 46.4 °F 41.1 °F 35.6 °F 66% 29.56 in 6.2 mi SW 11.5 mph - N/A   Mostly Cloudy
10:55 PM 44.6 °F 39.2 °F 37.4 °F 76% 29.56 in 6.2 mi SW 10.4 mph - N/A   Mostly Cloudy
11:25 PM 42.8 °F 40.1 °F 37.4 °F 81% 29.56 in 6.2 mi SW 4.6 mph - N/A   Partly Cloudy
11:55 PM 42.8 °F 39.3 °F 37.4 °F 81% 29.56 in 6.2 mi SSW 5.8 mph - N/A   Partly Cloudy